SL-16 DEB, 39708

Orbit data source: Space-Track

SL-16 DEB, 39708 is space debris in LEO originally from a launch on Fri, 25 Dec 1992 UTC launched from the Tyuratam Missile And Space Complex (TTMTR). Debris objects in space refer to the collection of defunct objects orbiting the Earth. Examples of debris include non-operational satellites, rocket bodies, and fragments generated from explosions, collisions, or faulty payload assembly.

Loading next visibility...
Identifier
39708, 1992-093JY
Orbit
LEO
Country
Flag of CISCIS
Related business
Manufacturer
Unknown
Mission
Spacecraft
Bus & Motor
Unknown
Mass
Unknown
Launch date (UTC)
1992-12-25 (33 years ago)
Launch vehicle
Unknown
Launch site
Tyuratam Missile And Space Complex (TTMTR)
Object type
Payload
Rocket body
Debris
Shape & HBR
Unknown shape, 0.1 m
Radar Cross Section
Small (<0.1 m²)

Expand to show TLE details & history
Last TLE update: 4 days ago

TLE from 4 days ago
0 SL-16 DEB
1 39708U 92093JY  25292.75318787  .00023495  00000-0  17303-2 0  9995
2 39708  71.2756 101.4834 0047595  40.5105 338.9341 15.02372608620163
Epoch: 2025-10-19T18:04Z
TLE epoch observation values (Epoch: 2025-10-19T18:04:35.431Z)
Latitude
18.19491°
Longitude
168.23171°
Altitude
530.743 km
Speed
7.616 km/s
True Right ascension
07h 11m 22s
True Declination
18° 05' 23"
Sunlit
Object was in daylight at epoch
Visualization orbit readout
Latitude
Unknown
Longitude
Unknown
Altitude
Unknown
Speed
Unknown
Apparent Right ascension
Unknown
Apparent Declination
Unknown
Sunlit
N/A
Visualization observer readout
Local Sidereal Time
23:59:03
Azimuth
Unknown
Elevation
Unknown
Doppler factor
Unknown
Orbital elements
Apogee altitude
590.404 km
Perigee altitude
524.385 km
Semi-major axis
6,935.531 km
Eccentricity
0.00476
Inclination
71.2756°
RAAN
101.4834°
Arg. of periapsis
40.5105°
True anomaly
338.73697°
Mean anomaly
338.9341°
Eccentric anomaly
338.83564°
Mean motion
3.75771 °/min
Orbital period
95.8 mins
BSTAR
0.0017303
Loading maneuver chart data...
Computing Atmospheric mass density...
Loading historical data...
Loading historical data...
Loading historical data...
Loading historical data...
Loading historical data...
Loading historical data...
Loading historical data...

Documentation

Showing up to 5 results
|